Location: 22
(39.7117°N, 89.5929°W)
Time: 07:52:17
(UTC-05:00)

ISS - Pass Details

Date: 26 September 2021
Orbit: 417 x 423 km, 51.6° (Epoch: 16 October)

Event Time Altitude Azimuth Distance (km) Brightness Sun altitude
Rises 20:05:26 0° 308° (NW) 2,363 1.2 -15.6°
Reaches altitude 10° 20:08:53 10° 346° (NNW) 1,501 -0.6 -16.2°
Maximum altitude 20:09:57 11° 4° (N) 1,435 -1.0 -16.4°
Drops below altitude 10° 20:11:00 10° 23° (NNE) 1,502 -1.1 -16.6°
Enters shadow 20:11:24 - 29° (NNE) 1,559 -1.0 -16.7°
